Time,TemperatureF,DewpointF,PressureIn,WindDirection,WindDirectionDegrees,WindSpeedMPH,WindSpeedGustMPH,Humidity,HourlyPrecipIn,Conditions,Clouds,dailyrainin,SoftwareType,DateUTC
2014-10-22 00:02:00,48.0,41.1,30.13,NNE,16,0.0,0.0,77,0.00,,,0.00,Wunderground v.1.15,2014-10-22 05:02:00,
2014-10-22 00:07:00,48.0,41.1,30.13,NNE,17,0.0,0.0,77,0.00,,,0.00,Wunderground v.1.15,2014-10-22 05:07:00,
2014-10-22 00:12:00,47.9,41.0,30.13,NNE,21,0.0,0.0,77,0.00,,,0.00,Wunderground v.1.15,2014-10-22 05:12:00,
2014-10-22 00:18:00,47.7,40.8,30.13,NNE,21,0.0,0.0,77,0.00,,,0.00,Wunderground v.1.15,2014-10-22 05:18:00,
2014-10-22 00:23:00,47.6,41.1,30.13,NNE,21,0.0,0.0,78,0.00,,,0.00,Wunderground v.1.15,2014-10-22 05:23:00,
2014-10-22 00:28:00,47.6,41.1,30.13,NNE,21,0.0,0.0,78,0.00,,,0.00,Wunderground v.1.15,2014-10-22 05:28:00,
2014-10-22 00:33:00,47.4,40.9,30.13,NNE,21,0.0,0.0,78,0.00,,,0.00,Wunderground v.1.15,2014-10-22 05:33:00,
2014-10-22 00:39:00,47.3,40.8,30.13,NNE,21,0.0,0.0,78,0.00,,,0.00,Wunderground v.1.15,2014-10-22 05:39:00,
2014-10-22 00:44:00,47.1,40.6,30.14,NNE,21,0.0,0.0,78,0.00,,,0.00,Wunderground v.1.15,2014-10-22 05:44:00,
2014-10-22 00:49:00,47.1,40.6,30.14,NNE,21,0.0,0.0,78,0.00,,,0.00,Wunderground v.1.15,2014-10-22 05:49:00,
2014-10-22 00:55:00,47.0,40.5,30.14,NNE,21,0.0,0.0,78,0.00,,,0.00,Wunderground v.1.15,2014-10-22 05:55:00,
2014-10-22 01:00:00,46.8,40.3,30.14,NNE,21,0.0,0.0,78,0.00,,,0.00,Wunderground v.1.15,2014-10-22 06:00:00,
2014-10-22 01:05:00,46.8,40.3,30.14,NNE,21,0.0,0.0,78,0.00,,,0.00,Wunderground v.1.15,2014-10-22 06:05:00,
2014-10-22 01:11:00,46.7,40.2,30.14,NNE,21,0.0,0.0,78,0.00,,,0.00,Wunderground v.1.15,2014-10-22 06:11:00,
2014-10-22 01:16:00,46.5,40.0,30.14,NNE,21,0.0,0.0,78,0.00,,,0.00,Wunderground v.1.15,2014-10-22 06:16:00,
2014-10-22 01:21:00,46.4,40.2,30.14,NNE,21,0.0,0.0,79,0.00,,,0.00,Wunderground v.1.15,2014-10-22 06:21:00,
2014-10-22 01:27:00,46.2,40.0,30.14,NNE,21,0.0,0.0,79,0.00,,,0.00,Wunderground v.1.15,2014-10-22 06:27:00,
2014-10-22 01:32:00,46.1,39.9,30.14,NNE,21,0.0,0.0,79,0.00,,,0.00,Wunderground v.1.15,2014-10-22 06:32:00,
2014-10-22 01:37:00,46.0,40.2,30.14,NNE,21,0.0,0.0,80,0.00,,,0.00,Wunderground v.1.15,2014-10-22 06:37:00,
2014-10-22 01:43:00,45.8,40.0,30.14,NNE,21,0.0,0.0,80,0.00,,,0.00,Wunderground v.1.15,2014-10-22 06:43:00,
2014-10-22 01:48:00,45.7,39.9,30.14,NNE,21,0.0,0.0,80,0.00,,,0.00,Wunderground v.1.15,2014-10-22 06:48:00,
2014-10-22 01:54:00,45.5,40.0,30.14,NNE,21,0.0,0.0,81,0.00,,,0.00,Wunderground v.1.15,2014-10-22 06:54:00,
2014-10-22 02:00:00,45.4,39.9,30.14,NNE,21,0.0,0.0,81,0.00,,,0.00,Wunderground v.1.15,2014-10-22 07:00:00,
2014-10-22 02:05:00,45.2,39.7,30.14,NNE,21,0.0,0.0,81,0.00,,,0.00,Wunderground v.1.15,2014-10-22 07:05:00,
2014-10-22 02:10:00,45.2,39.7,30.14,NNE,21,0.0,0.0,81,0.00,,,0.00,Wunderground v.1.15,2014-10-22 07:10:00,
2014-10-22 02:15:00,45.1,39.6,30.14,NNE,21,0.0,0.0,81,0.00,,,0.00,Wunderground v.1.15,2014-10-22 07:15:00,
2014-10-22 02:20:00,45.1,39.6,30.14,NNE,21,0.0,0.0,81,0.00,,,0.00,Wunderground v.1.15,2014-10-22 07:20:00,
2014-10-22 02:25:00,45.1,39.9,30.14,NNE,21,0.0,0.0,82,0.00,,,0.00,Wunderground v.1.15,2014-10-22 07:25:00,
2014-10-22 02:30:00,44.9,39.7,30.14,NNE,21,0.0,0.0,82,0.00,,,0.00,Wunderground v.1.15,2014-10-22 07:30:00,
2014-10-22 02:35:00,44.9,39.7,30.14,NNE,33,0.0,0.0,82,0.00,,,0.00,Wunderground v.1.15,2014-10-22 07:35:00,
2014-10-22 02:40:00,44.9,39.7,30.14,NNE,33,0.0,0.0,82,0.00,,,0.00,Wunderground v.1.15,2014-10-22 07:40:00,
2014-10-22 02:45:00,44.8,40.0,30.15,NNE,33,0.0,0.0,83,0.00,,,0.00,Wunderground v.1.15,2014-10-22 07:45:00,
2014-10-22 02:50:00,44.8,40.0,30.15,NNE,33,0.0,0.0,83,0.00,,,0.00,Wunderground v.1.15,2014-10-22 07:50:00,
2014-10-22 02:55:00,44.6,39.8,30.15,NNE,33,0.0,0.0,83,0.00,,,0.00,Wunderground v.1.15,2014-10-22 07:55:00,
2014-10-22 03:00:00,44.6,39.8,30.16,NNE,33,0.0,0.0,83,0.00,,,0.00,Wunderground v.1.15,2014-10-22 08:00:00,
2014-10-22 03:05:00,44.6,39.8,30.16,NNE,33,0.0,0.0,83,0.00,,,0.00,Wunderground v.1.15,2014-10-22 08:05:00,
2014-10-22 03:10:00,44.5,40.0,30.16,NNE,33,0.0,0.0,84,0.00,,,0.00,Wunderground v.1.15,2014-10-22 08:10:00,
2014-10-22 03:15:00,44.5,40.0,30.16,NNE,33,0.0,1.0,84,0.00,,,0.00,Wunderground v.1.15,2014-10-22 08:15:00,
2014-10-22 03:20:00,44.5,40.0,30.16,NNE,33,0.0,0.0,84,0.00,,,0.00,Wunderground v.1.15,2014-10-22 08:20:00,
2014-10-22 03:25:00,44.3,39.8,30.16,NNE,33,0.0,0.0,84,0.00,,,0.00,Wunderground v.1.15,2014-10-22 08:25:00,
2014-10-22 03:30:00,44.2,39.7,30.16,NNE,33,0.0,0.0,84,0.00,,,0.00,Wunderground v.1.15,2014-10-22 08:30:00,
2014-10-22 03:35:00,44.2,39.7,30.16,NNE,33,0.0,0.0,84,0.00,,,0.00,Wunderground v.1.15,2014-10-22 08:35:00,
2014-10-22 03:40:00,44.2,39.7,30.16,NNE,33,0.0,0.0,84,0.00,,,0.00,Wunderground v.1.15,2014-10-22 08:40:00,
2014-10-22 03:45:00,44.1,39.6,30.17,NNE,33,0.0,0.0,84,0.00,,,0.00,Wunderground v.1.15,2014-10-22 08:45:00,
2014-10-22 03:50:00,43.9,39.4,30.17,NNE,33,0.0,0.0,84,0.00,,,0.00,Wunderground v.1.15,2014-10-22 08:50:00,
2014-10-22 03:56:00,43.9,39.4,30.17,NNE,33,0.0,0.0,84,0.00,,,0.00,Wunderground v.1.15,2014-10-22 08:56:00,
2014-10-22 04:01:00,43.8,39.3,30.17,NNE,33,0.0,0.0,84,0.00,,,0.00,Wunderground v.1.15,2014-10-22 09:01:00,
2014-10-22 04:06:00,43.5,39.3,30.17,NNE,33,0.0,0.0,85,0.00,,,0.00,Wunderground v.1.15,2014-10-22 09:06:00,
2014-10-22 04:11:00,43.5,39.3,30.17,NNE,33,0.0,0.0,85,0.00,,,0.00,Wunderground v.1.15,2014-10-22 09:11:00,
2014-10-22 04:16:00,43.3,39.1,30.17,NNE,33,0.0,0.0,85,0.00,,,0.00,Wunderground v.1.15,2014-10-22 09:16:00,
2014-10-22 04:21:00,43.2,39.0,30.17,NNE,33,0.0,0.0,85,0.00,,,0.00,Wunderground v.1.15,2014-10-22 09:21:00,
2014-10-22 04:26:00,43.1,38.9,30.17,NNE,33,0.0,0.0,85,0.00,,,0.00,Wunderground v.1.15,2014-10-22 09:26:00,
2014-10-22 04:31:00,42.8,38.6,30.18,NNE,33,0.0,0.0,85,0.00,,,0.00,Wunderground v.1.15,2014-10-22 09:31:00,
2014-10-22 04:36:00,42.6,38.4,30.18,NNE,33,0.0,0.0,85,0.00,,,0.00,Wunderground v.1.15,2014-10-22 09:36:00,
2014-10-22 04:41:00,42.6,38.7,30.18,NNE,33,0.0,0.0,86,0.00,,,0.00,Wunderground v.1.15,2014-10-22 09:41:00,
2014-10-22 04:46:00,42.5,38.6,30.19,NNE,33,0.0,0.0,86,0.00,,,0.00,Wunderground v.1.15,2014-10-22 09:46:00,
2014-10-22 04:51:00,42.3,38.4,30.19,NNE,33,0.0,0.0,86,0.00,,,0.00,Wunderground v.1.15,2014-10-22 09:51:00,
2014-10-22 04:56:00,42.2,38.3,30.19,NNE,33,0.0,0.0,86,0.00,,,0.00,Wunderground v.1.15,2014-10-22 09:56:00,
2014-10-22 05:01:00,42.1,38.2,30.19,NNE,33,0.0,0.0,86,0.00,,,0.00,Wunderground v.1.15,2014-10-22 10:01:00,
2014-10-22 05:06:00,41.8,37.9,30.19,NNE,33,0.0,0.0,86,0.00,,,0.00,Wunderground v.1.15,2014-10-22 10:06:00,
2014-10-22 05:11:00,41.6,37.7,30.19,NNE,33,0.0,0.0,86,0.00,,,0.00,Wunderground v.1.15,2014-10-22 10:11:00,
2014-10-22 05:16:00,41.5,37.6,30.19,NNE,33,0.0,0.0,86,0.00,,,0.00,Wunderground v.1.15,2014-10-22 10:16:00,
2014-10-22 05:21:00,41.3,37.4,30.19,NNE,33,0.0,0.0,86,0.00,,,0.00,Wunderground v.1.15,2014-10-22 10:21:00,
2014-10-22 05:26:00,41.2,37.3,30.19,NNE,33,0.0,0.0,86,0.00,,,0.00,Wunderground v.1.15,2014-10-22 10:26:00,
2014-10-22 05:31:00,41.1,37.5,30.20,NNE,33,0.0,0.0,87,0.00,,,0.00,Wunderground v.1.15,2014-10-22 10:31:00,
2014-10-22 05:36:00,40.9,37.3,30.20,NNE,33,0.0,0.0,87,0.00,,,0.00,Wunderground v.1.15,2014-10-22 10:36:00,
2014-10-22 05:41:00,40.9,37.3,30.20,NNE,33,0.0,0.0,87,0.00,,,0.00,Wunderground v.1.15,2014-10-22 10:41:00,
2014-10-22 05:46:00,40.8,37.2,30.19,NNE,33,0.0,0.0,87,0.00,,,0.00,Wunderground v.1.15,2014-10-22 10:46:00,
2014-10-22 05:51:00,40.6,37.0,30.19,NNE,33,0.0,0.0,87,0.00,,,0.00,Wunderground v.1.15,2014-10-22 10:51:00,
2014-10-22 05:57:00,40.5,36.9,30.20,NNE,33,0.0,0.0,87,0.00,,,0.00,Wunderground v.1.15,2014-10-22 10:57:00,
2014-10-22 06:02:00,40.5,37.2,30.20,NNE,33,0.0,0.0,88,0.00,,,0.00,Wunderground v.1.15,2014-10-22 11:02:00,
2014-10-22 06:07:00,40.3,37.0,30.20,NNE,33,0.0,0.0,88,0.00,,,0.00,Wunderground v.1.15,2014-10-22 11:07:00,
2014-10-22 06:12:00,40.3,37.0,30.21,NNE,33,0.0,0.0,88,0.00,,,0.00,Wunderground v.1.15,2014-10-22 11:12:00,
2014-10-22 06:17:00,40.2,36.9,30.21,NNE,33,0.0,0.0,88,0.00,,,0.00,Wunderground v.1.15,2014-10-22 11:17:00,
2014-10-22 06:22:00,40.1,36.8,30.21,NNE,33,0.0,0.0,88,0.00,,,0.00,Wunderground v.1.15,2014-10-22 11:22:00,
2014-10-22 06:27:00,40.1,36.8,30.22,NNE,33,0.0,0.0,88,0.00,,,0.00,Wunderground v.1.15,2014-10-22 11:27:00,
2014-10-22 06:32:00,39.9,36.6,30.22,NNE,33,0.0,0.0,88,0.00,,,0.00,Wunderground v.1.15,2014-10-22 11:32:00,
2014-10-22 06:37:00,39.9,36.6,30.22,NNE,33,0.0,0.0,88,0.00,,,0.00,Wunderground v.1.15,2014-10-22 11:37:00,
2014-10-22 06:42:00,39.9,36.6,30.23,NNE,33,0.0,0.0,88,0.00,,,0.00,Wunderground v.1.15,2014-10-22 11:42:00,
2014-10-22 06:47:00,39.9,36.6,30.23,NNE,33,0.0,0.0,88,0.00,,,0.00,Wunderground v.1.15,2014-10-22 11:47:00,
2014-10-22 06:52:00,39.9,36.9,30.23,NNE,33,0.0,0.0,89,0.00,,,0.00,Wunderground v.1.15,2014-10-22 11:52:00,
2014-10-22 06:57:00,39.9,36.9,30.23,NNE,33,0.0,0.0,89,0.00,,,0.00,Wunderground v.1.15,2014-10-22 11:57:00,
2014-10-22 07:02:00,39.8,36.8,30.23,NNE,33,0.0,0.0,89,0.00,,,0.00,Wunderground v.1.15,2014-10-22 12:02:00,
2014-10-22 07:07:00,39.8,36.8,30.23,NNE,33,0.0,0.0,89,0.00,,,0.00,Wunderground v.1.15,2014-10-22 12:07:00,
2014-10-22 07:12:00,39.6,36.6,30.23,NNE,33,0.0,0.0,89,0.00,,,0.00,Wunderground v.1.15,2014-10-22 12:12:00,
2014-10-22 07:17:00,39.5,36.5,30.23,NNE,33,0.0,0.0,89,0.00,,,0.00,Wunderground v.1.15,2014-10-22 12:17:00,
2014-10-22 07:22:00,39.5,36.5,30.23,NNE,33,0.0,0.0,89,0.00,,,0.00,Wunderground v.1.15,2014-10-22 12:22:00,
2014-10-22 07:27:00,39.5,36.5,30.23,NNE,33,0.0,0.0,89,0.00,,,0.00,Wunderground v.1.15,2014-10-22 12:27:00,
2014-10-22 07:32:00,39.5,36.8,30.23,NNE,33,0.0,0.0,90,0.00,,,0.00,Wunderground v.1.15,2014-10-22 12:32:00,
2014-10-22 07:37:00,39.3,36.6,30.23,NNE,33,0.0,0.0,90,0.00,,,0.00,Wunderground v.1.15,2014-10-22 12:37:00,
2014-10-22 07:42:00,39.3,36.6,30.23,NNE,33,0.0,0.0,90,0.00,,,0.00,Wunderground v.1.15,2014-10-22 12:42:00,
2014-10-22 07:47:00,39.3,36.6,30.23,NNE,33,0.0,0.0,90,0.00,,,0.00,Wunderground v.1.15,2014-10-22 12:47:00,
2014-10-22 07:52:00,39.3,36.6,30.23,NNE,33,0.0,0.0,90,0.00,,,0.00,Wunderground v.1.15,2014-10-22 12:52:00,
2014-10-22 07:57:00,39.3,36.6,30.24,NNE,33,0.0,0.0,90,0.00,,,0.00,Wunderground v.1.15,2014-10-22 12:57:00,
2014-10-22 08:02:00,39.5,37.1,30.24,NNE,33,0.0,0.0,91,0.00,,,0.00,Wunderground v.1.15,2014-10-22 13:02:00,
2014-10-22 08:07:00,39.6,37.2,30.24,NNE,33,0.0,0.0,91,0.00,,,0.00,Wunderground v.1.15,2014-10-22 13:07:00,
2014-10-22 08:12:00,39.8,37.4,30.24,NNE,33,0.0,0.0,91,0.00,,,0.00,Wunderground v.1.15,2014-10-22 13:12:00,
2014-10-22 08:17:00,40.1,37.7,30.24,NNE,33,0.0,0.0,91,0.00,,,0.00,Wunderground v.1.15,2014-10-22 13:17:00,
2014-10-22 08:23:00,41.5,39.6,30.24,NNE,33,0.0,0.0,93,0.00,,,0.00,Wunderground v.1.15,2014-10-22 13:23:00,
2014-10-22 08:28:00,42.8,40.9,30.25,NNE,33,0.0,0.0,93,0.00,,,0.00,Wunderground v.1.15,2014-10-22 13:28:00,
2014-10-22 08:33:00,43.3,41.1,30.25,NNE,33,0.0,0.0,92,0.00,,,0.00,Wunderground v.1.15,2014-10-22 13:33:00,
2014-10-22 08:38:00,43.9,41.7,30.25,NNE,33,0.0,0.0,92,0.00,,,0.00,Wunderground v.1.15,2014-10-22 13:38:00,
2014-10-22 08:43:00,44.6,42.4,30.25,NNE,33,0.0,0.0,92,0.00,,,0.00,Wunderground v.1.15,2014-10-22 13:43:00,
2014-10-22 08:48:00,45.1,42.3,30.25,NNE,33,0.0,1.0,90,0.00,,,0.00,Wunderground v.1.15,2014-10-22 13:48:00,
2014-10-22 08:53:00,45.4,42.3,30.25,NNE,33,0.0,2.0,89,0.00,,,0.00,Wunderground v.1.15,2014-10-22 13:53:00,
2014-10-22 08:58:00,45.8,42.2,30.25,NE,47,1.0,3.0,87,0.00,,,0.00,Wunderground v.1.15,2014-10-22 13:58:00,
2014-10-22 09:03:00,46.2,41.9,30.25,NE,47,0.0,2.0,85,0.00,,,0.00,Wunderground v.1.15,2014-10-22 14:03:00,
2014-10-22 09:08:00,46.5,41.9,30.25,NE,48,0.0,3.0,84,0.00,,,0.00,Wunderground v.1.15,2014-10-22 14:08:00,
2014-10-22 09:13:00,47.1,42.5,30.26,ESE,119,0.0,3.0,84,0.00,,,0.00,Wunderground v.1.15,2014-10-22 14:13:00,
2014-10-22 09:18:00,47.1,41.9,30.26,ESE,103,0.0,3.0,82,0.00,,,0.00,Wunderground v.1.15,2014-10-22 14:18:00,
2014-10-22 09:23:00,47.6,41.7,30.26,ESE,103,1.0,1.0,80,0.00,,,0.00,Wunderground v.1.15,2014-10-22 14:23:00,
2014-10-22 09:28:00,47.9,42.0,30.26,ESE,111,2.0,6.0,80,0.00,,,0.00,Wunderground v.1.15,2014-10-22 14:28:00,
2014-10-22 09:33:00,48.3,42.4,30.26,ESE,106,0.0,1.0,80,0.00,,,0.00,Wunderground v.1.15,2014-10-22 14:33:00,
2014-10-22 09:38:00,48.6,42.4,30.26,ESE,106,0.0,2.0,79,0.00,,,0.00,Wunderground v.1.15,2014-10-22 14:38:00,
2014-10-22 09:43:00,48.6,41.7,30.26,SE,130,0.0,4.0,77,0.00,,,0.00,Wunderground v.1.15,2014-10-22 14:43:00,
2014-10-22 09:48:00,49.2,42.3,30.26,SE,130,0.0,4.0,77,0.00,,,0.00,Wunderground v.1.15,2014-10-22 14:48:00,
2014-10-22 09:53:00,49.5,42.2,30.26,SE,141,1.0,3.0,76,0.00,,,0.00,Wunderground v.1.15,2014-10-22 14:53:00,
2014-10-22 09:58:00,49.5,42.2,30.26,South,176,0.0,3.0,76,0.00,,,0.00,Wunderground v.1.15,2014-10-22 14:58:00,
2014-10-22 10:03:00,50.1,42.5,30.26,ESE,119,4.0,4.0,75,0.00,,,0.00,Wunderground v.1.15,2014-10-22 15:03:00,
2014-10-22 10:08:00,49.8,42.2,30.26,ENE,78,1.0,4.0,75,0.00,,,0.00,Wunderground v.1.15,2014-10-22 15:08:00,
2014-10-22 10:14:00,50.2,42.6,30.26,East,96,0.0,4.0,75,0.00,,,0.00,Wunderground v.1.15,2014-10-22 15:14:00,
2014-10-22 10:19:00,50.5,42.5,30.26,SE,124,2.0,4.0,74,0.00,,,0.00,Wunderground v.1.15,2014-10-22 15:19:00,
2014-10-22 10:24:00,51.0,42.6,30.26,SE,125,2.0,2.0,73,0.00,,,0.00,Wunderground v.1.15,2014-10-22 15:24:00,
2014-10-22 10:29:00,51.3,42.9,30.26,SSE,167,0.0,3.0,73,0.00,,,0.00,Wunderground v.1.15,2014-10-22 15:29:00,
2014-10-22 10:34:00,51.6,42.9,30.26,ESE,117,3.0,3.0,72,0.00,,,0.00,Wunderground v.1.15,2014-10-22 15:34:00,
2014-10-22 10:39:00,52.2,43.8,30.26,ESE,116,0.0,4.0,73,0.00,,,0.00,Wunderground v.1.15,2014-10-22 15:39:00,
2014-10-22 10:44:00,52.8,43.7,30.26,ESE,105,1.0,3.0,71,0.00,,,0.00,Wunderground v.1.15,2014-10-22 15:44:00,
2014-10-22 10:49:00,52.8,42.9,30.26,East,97,2.0,4.0,69,0.00,,,0.00,Wunderground v.1.15,2014-10-22 15:49:00,
2014-10-22 10:54:00,52.9,43.4,30.26,East,98,0.0,4.0,70,0.00,,,0.00,Wunderground v.1.15,2014-10-22 15:54:00,
2014-10-22 10:59:00,53.1,43.2,30.26,ESE,103,0.0,5.0,69,0.00,,,0.00,Wunderground v.1.15,2014-10-22 15:59:00,
2014-10-22 11:04:00,53.3,43.4,30.26,SE,138,0.0,3.0,69,0.00,,,0.00,Wunderground v.1.15,2014-10-22 16:04:00,
2014-10-22 11:09:00,53.3,43.4,30.26,ESE,112,1.0,4.0,69,0.00,,,0.00,Wunderground v.1.15,2014-10-22 16:09:00,
2014-10-22 11:14:00,53.6,43.3,30.26,SE,126,1.0,4.0,68,0.00,,,0.00,Wunderground v.1.15,2014-10-22 16:14:00,
2014-10-22 11:19:00,53.9,43.6,30.26,ESE,115,0.0,4.0,68,0.00,,,0.00,Wunderground v.1.15,2014-10-22 16:19:00,
2014-10-22 11:24:00,54.2,43.5,30.26,SSE,149,1.0,4.0,67,0.00,,,0.00,Wunderground v.1.15,2014-10-22 16:24:00,
2014-10-22 11:29:00,54.4,42.9,30.26,ESE,120,1.0,4.0,65,0.00,,,0.00,Wunderground v.1.15,2014-10-22 16:29:00,
2014-10-22 11:34:00,54.7,43.2,30.26,South,174,0.0,4.0,65,0.00,,,0.00,Wunderground v.1.15,2014-10-22 16:34:00,
2014-10-22 11:39:00,54.8,43.3,30.26,SSE,163,0.0,4.0,65,0.00,,,0.00,Wunderground v.1.15,2014-10-22 16:39:00,
2014-10-22 11:44:00,55.1,42.7,30.26,ESE,114,1.0,5.0,63,0.00,,,0.00,Wunderground v.1.15,2014-10-22 16:44:00,
2014-10-22 11:49:00,55.3,42.5,30.26,ESE,117,1.0,6.0,62,0.00,,,0.00,Wunderground v.1.15,2014-10-22 16:49:00,
2014-10-22 11:54:00,55.4,42.2,30.26,ESE,104,0.0,3.0,61,0.00,,,0.00,Wunderground v.1.15,2014-10-22 16:54:00,
2014-10-22 11:59:00,55.6,42.4,30.25,South,185,0.0,4.0,61,0.00,,,0.00,Wunderground v.1.15,2014-10-22 16:59:00,
2014-10-22 12:04:00,55.9,42.2,30.25,ESE,118,0.0,4.0,60,0.00,,,0.00,Wunderground v.1.15,2014-10-22 17:04:00,
2014-10-22 12:09:00,56.0,41.9,30.25,ESE,105,2.0,4.0,59,0.00,,,0.00,Wunderground v.1.15,2014-10-22 17:09:00,
2014-10-22 12:14:00,56.2,41.6,30.24,ESE,117,0.0,4.0,58,0.00,,,0.00,Wunderground v.1.15,2014-10-22 17:14:00,
2014-10-22 12:19:00,56.3,42.1,30.24,East,80,3.0,4.0,59,0.00,,,0.00,Wunderground v.1.15,2014-10-22 17:19:00,
2014-10-22 12:24:00,56.5,41.9,30.24,SE,129,3.0,5.0,58,0.00,,,0.00,Wunderground v.1.15,2014-10-22 17:24:00,
2014-10-22 12:29:00,56.7,42.1,30.23,SE,129,1.0,5.0,58,0.00,,,0.00,Wunderground v.1.15,2014-10-22 17:29:00,
2014-10-22 12:34:00,56.9,41.8,30.23,ENE,71,2.0,5.0,57,0.00,,,0.00,Wunderground v.1.15,2014-10-22 17:34:00,
2014-10-22 12:39:00,56.9,41.8,30.23,ESE,120,0.0,5.0,57,0.00,,,0.00,Wunderground v.1.15,2014-10-22 17:39:00,
2014-10-22 12:44:00,56.9,41.8,30.23,ESE,119,0.0,5.0,57,0.00,,,0.00,Wunderground v.1.15,2014-10-22 17:44:00,
2014-10-22 12:49:00,57.0,42.4,30.23,East,93,2.0,5.0,58,0.00,,,0.00,Wunderground v.1.15,2014-10-22 17:49:00,
2014-10-22 12:55:00,57.0,42.4,30.23,ENE,74,0.0,3.0,58,0.00,,,0.00,Wunderground v.1.15,2014-10-22 17:55:00,
2014-10-22 13:00:00,57.3,42.2,30.22,ESE,121,0.0,1.0,57,0.00,,,0.00,Wunderground v.1.15,2014-10-22 18:00:00,
2014-10-22 13:05:00,57.5,42.4,30.22,ENE,67,2.0,4.0,57,0.00,,,0.00,Wunderground v.1.15,2014-10-22 18:05:00,
2014-10-22 13:10:00,57.5,41.9,30.22,East,98,1.0,1.0,56,0.00,,,0.00,Wunderground v.1.15,2014-10-22 18:10:00,
2014-10-22 13:15:00,57.8,42.2,30.21,ESE,113,1.0,6.0,56,0.00,,,0.00,Wunderground v.1.15,2014-10-22 18:15:00,
2014-10-22 13:20:00,58.0,42.8,30.21,ESE,112,0.0,1.0,57,0.00,,,0.00,Wunderground v.1.15,2014-10-22 18:20:00,
2014-10-22 13:25:00,58.3,42.7,30.21,SE,126,0.0,4.0,56,0.00,,,0.00,Wunderground v.1.15,2014-10-22 18:25:00,
2014-10-22 13:30:00,58.3,43.1,30.21,ESE,117,0.0,1.0,57,0.00,,,0.00,Wunderground v.1.15,2014-10-22 18:30:00,
2014-10-22 13:35:00,58.7,42.6,30.21,South,181,0.0,4.0,55,0.00,,,0.00,Wunderground v.1.15,2014-10-22 18:35:00,
2014-10-22 13:40:00,59.3,42.6,30.21,ESE,116,3.0,3.0,54,0.00,,,0.00,Wunderground v.1.15,2014-10-22 18:40:00,
2014-10-22 13:45:00,58.6,42.0,30.20,NNE,16,2.0,3.0,54,0.00,,,0.00,Wunderground v.1.15,2014-10-22 18:45:00,
2014-10-22 13:50:00,58.9,42.3,30.20,ESE,106,0.0,1.0,54,0.00,,,0.00,Wunderground v.1.15,2014-10-22 18:50:00,
2014-10-22 13:55:00,59.9,42.7,30.20,ESE,109,4.0,4.0,53,0.00,,,0.00,Wunderground v.1.15,2014-10-22 18:55:00,
2014-10-22 14:00:00,59.9,41.7,30.19,East,86,2.0,2.0,51,0.00,,,0.00,Wunderground v.1.15,2014-10-22 19:00:00,
2014-10-22 14:05:00,59.8,41.6,30.19,ESE,103,0.0,4.0,51,0.00,,,0.00,Wunderground v.1.15,2014-10-22 19:05:00,
2014-10-22 14:10:00,59.8,41.1,30.19,ESE,116,1.0,3.0,50,0.00,,,0.00,Wunderground v.1.15,2014-10-22 19:10:00,
2014-10-22 14:15:00,60.5,41.8,30.19,South,171,2.0,3.0,50,0.00,,,0.00,Wunderground v.1.15,2014-10-22 19:15:00,
2014-10-22 14:20:00,60.5,41.2,30.19,SE,127,0.0,4.0,49,0.00,,,0.00,Wunderground v.1.15,2014-10-22 19:20:00,
2014-10-22 14:25:00,60.2,41.0,30.19,SE,127,3.0,5.0,49,0.00,,,0.00,Wunderground v.1.15,2014-10-22 19:25:00,
2014-10-22 14:30:00,60.5,41.2,30.18,ESE,108,0.0,1.0,49,0.00,,,0.00,Wunderground v.1.15,2014-10-22 19:30:00,
2014-10-22 14:35:00,60.7,41.9,30.18,East,98,2.0,6.0,50,0.00,,,0.00,Wunderground v.1.15,2014-10-22 19:35:00,
2014-10-22 14:40:00,60.9,42.1,30.18,ENE,65,0.0,2.0,50,0.00,,,0.00,Wunderground v.1.15,2014-10-22 19:40:00,
2014-10-22 14:45:00,61.3,42.5,30.18,SE,126,1.0,4.0,50,0.00,,,0.00,Wunderground v.1.15,2014-10-22 19:45:00,
2014-10-22 14:50:00,61.0,42.2,30.18,ESE,122,1.0,2.0,50,0.00,,,0.00,Wunderground v.1.15,2014-10-22 19:50:00,
2014-10-22 14:55:00,60.9,41.1,30.18,NE,48,0.0,3.0,48,0.00,,,0.00,Wunderground v.1.15,2014-10-22 19:55:00,
2014-10-22 15:00:00,61.2,41.9,30.17,SSE,152,0.0,2.0,49,0.00,,,0.00,Wunderground v.1.15,2014-10-22 20:00:00,
2014-10-22 15:05:00,61.3,41.4,30.17,ESE,109,1.0,4.0,48,0.00,,,0.00,Wunderground v.1.15,2014-10-22 20:05:00,
2014-10-22 15:10:00,61.3,40.9,30.17,ESE,113,0.0,1.0,47,0.00,,,0.00,Wunderground v.1.15,2014-10-22 20:10:00,
2014-10-22 15:15:00,61.3,40.9,30.17,SSE,153,3.0,4.0,47,0.00,,,0.00,Wunderground v.1.15,2014-10-22 20:15:00,
2014-10-22 15:20:00,61.3,41.4,30.17,ENE,62,0.0,1.0,48,0.00,,,0.00,Wunderground v.1.15,2014-10-22 20:20:00,
2014-10-22 15:25:00,61.3,40.9,30.17,ESE,108,3.0,3.0,47,0.00,,,0.00,Wunderground v.1.15,2014-10-22 20:25:00,
2014-10-22 15:30:00,61.3,40.3,30.17,ESE,107,2.0,5.0,46,0.00,,,0.00,Wunderground v.1.15,2014-10-22 20:30:00,
2014-10-22 15:35:00,61.3,40.9,30.17,ESE,103,1.0,5.0,47,0.00,,,0.00,Wunderground v.1.15,2014-10-22 20:35:00,
2014-10-22 15:40:00,61.5,41.1,30.17,ESE,106,0.0,2.0,47,0.00,,,0.00,Wunderground v.1.15,2014-10-22 20:40:00,
2014-10-22 15:45:00,61.5,41.1,30.16,ESE,107,1.0,5.0,47,0.00,,,0.00,Wunderground v.1.15,2014-10-22 20:45:00,
2014-10-22 15:51:00,61.6,41.7,30.16,SE,141,3.0,3.0,48,0.00,,,0.00,Wunderground v.1.15,2014-10-22 20:51:00,
2014-10-22 15:56:00,61.8,41.9,30.16,East,99,0.0,3.0,48,0.00,,,0.00,Wunderground v.1.15,2014-10-22 20:56:00,
2014-10-22 16:01:00,61.8,41.9,30.16,East,99,0.0,1.0,48,0.00,,,0.00,Wunderground v.1.15,2014-10-22 21:01:00,
2014-10-22 16:06:00,61.8,41.3,30.16,ESE,114,4.0,4.0,47,0.00,,,0.00,Wunderground v.1.15,2014-10-22 21:06:00,
2014-10-22 16:11:00,61.6,41.2,30.16,NE,38,1.0,2.0,47,0.00,,,0.00,Wunderground v.1.15,2014-10-22 21:11:00,
2014-10-22 16:16:00,61.8,40.8,30.16,ESE,105,2.0,4.0,46,0.00,,,0.00,Wunderground v.1.15,2014-10-22 21:16:00,
2014-10-22 16:21:00,61.5,40.5,30.16,East,89,0.0,3.0,46,0.00,,,0.00,Wunderground v.1.15,2014-10-22 21:21:00,
2014-10-22 16:26:00,61.2,40.2,30.16,ESE,121,3.0,4.0,46,0.00,,,0.00,Wunderground v.1.15,2014-10-22 21:26:00,
2014-10-22 16:31:00,61.2,40.8,30.16,ESE,113,2.0,3.0,47,0.00,,,0.00,Wunderground v.1.15,2014-10-22 21:31:00,
2014-10-22 16:36:00,61.3,41.4,30.16,East,91,2.0,4.0,48,0.00,,,0.00,Wunderground v.1.15,2014-10-22 21:36:00,
2014-10-22 16:41:00,61.3,40.3,30.16,ESE,119,2.0,3.0,46,0.00,,,0.00,Wunderground v.1.15,2014-10-22 21:41:00,
2014-10-22 16:46:00,61.2,40.8,30.15,ESE,123,1.0,4.0,47,0.00,,,0.00,Wunderground v.1.15,2014-10-22 21:46:00,
2014-10-22 16:51:00,61.3,40.9,30.15,ESE,107,1.0,1.0,47,0.00,,,0.00,Wunderground v.1.15,2014-10-22 21:51:00,
2014-10-22 16:56:00,61.2,40.8,30.15,East,98,1.0,5.0,47,0.00,,,0.00,Wunderground v.1.15,2014-10-22 21:56:00,
2014-10-22 17:01:00,61.0,41.2,30.15,ESE,116,0.0,2.0,48,0.00,,,0.00,Wunderground v.1.15,2014-10-22 22:01:00,